Location: Bagnolo San Vito
(45.0833°N, 10.8833°E)
Time: 00:00:25
(UTC+00:00)

Cosmos 1503 Rocket - Pass Details

Date: 03 March 2021
Orbit: 753 x 790 km, 74.0° (Epoch: 17 April)

Event Time Altitude Azimuth Distance (km) Brightness Sun altitude
Rises 18:29:40 0° 337° (NNW) 3,228 7.7 -15.4°
Reaches altitude 10° 18:32:03 10° 336° (NNW) 2,295 6.9 -15.8°
Maximum altitude 18:37:14 78° 251° (WSW) 776 4.1 -16.8°
Drops below altitude 10° 18:42:23 10° 166° (SSE) 2,270 6.2 -17.7°
Enters shadow 18:44:31 - 165° (SSE) 3,107 6.9 -18.0°
